Location: Jackson Park
(37.2862°N, 79.9123°W)
Time: 14:20:09
(UTC+00:00)

Vanguard 2 - Pass Details

Date: 13 May 2026
Orbit: 553 x 2894 km, 32.9° (Epoch: 6 June)

Event Time Altitude Azimuth Distance (km) Brightness Sun altitude
Rises 03:36:54 0° 176° (S) 6,008 - -29.6°
Reaches altitude 10° 03:45:16 10° 149° (SSE) 5,449 - -30.4°
Maximum altitude 03:50:07 12° 131° (SE) 5,450 - -30.8°
Drops below altitude 10° 03:55:08 10° 114° (ESE) 5,696 - -31.2°
Exits shadow 03:58:08 - 105° (ESE) 5,948 11.7 -31.4°
Sets 04:04:22 0° 89° (E) 6,660 12.1 -31.8°
